Weather History for Harbor Springs, MI

Change the Weather History Date:

Saturday, August 30, 2014

  Actual Average (KPLN) Record (KPLN)
Temperature  
Mean Temperature 72 °F -  
Max Temperature 80 °F 75 °F 92 °F (1969)
Min Temperature 64 °F 51 °F 29 °F (1976)
Cooling Degree Days 7    
Growing Degree Days 22 (Base 50)    
Moisture  
Dew Point 67 °F    
Average Humidity 86    
Maximum Humidity 97    
Minimum Humidity 66    
Precipitation  
Precipitation 0.00 in - - ()
Sea Level Pressure  
Sea Level Pressure 29.79 in    
Wind  
Wind Speed 4 mph (WSW)    
Max Wind Speed 13 mph    
Max Gust Speed 22 mph    
Visibility 8 miles    
Events Rain    
Averages and records for this station are not official NWS values.
T = Trace of Precipitation, MM = Missing Value Source: NWS Daily Summary

Daily Weather History Graph

Daily Weather History Graph

Search for Another Location

Airport:

Trip Planner

Search our weather history database for the weather conditions in past years. The results will help you decide how hot, cold, wet, or windy it might be!

Date:

Astronomy

Aug. 30, 2014 Rise Set
Actual Time 6:58 AM EDT 8:20 PM EDT
Civil Twilight 6:27 AM EDT 8:51 PM EDT
Nautical Twilight 5:50 AM EDT 9:28 PM EDT
Astronomical Twilight 5:11 AM EDT 10:07 PM EDT
Moon 12:01 PM EDT (8/30) 10:38 PM EDT (8/30)
Length of Visible Light 14h 23m
Length of Day
13h 22m
Waxing Crescent, 23% of the Moon is Illuminated
Aug 30
Waxing Crescent
Sep 2
First Quarter
Sep 8
Full
Sep 15
Last Quarter
Sep 24
New

Hourly Weather History & Observations

Time (EDT) Temp. Heat Index Dew Point Humidity Pressure Visibility Wind Dir Wind Speed Gust Speed Precip Events Conditions
12:14 AM 69.8 °F - 65.1 °F 85% 29.88 in 10.0 mi South 4.6 mph - N/A Rain Light Rain
12:34 AM 70.3 °F - 65.3 °F 84% 29.88 in 10.0 mi Calm Calm - N/A   Scattered Clouds
12:55 AM 71.8 °F - 65.3 °F 80% 29.88 in 10.0 mi Calm Calm - N/A   Mostly Cloudy
1:14 AM 70.7 °F - 65.5 °F 83% 29.88 in 10.0 mi Calm Calm - N/A   Mostly Cloudy
1:35 AM 72.3 °F - 66.0 °F 80% 29.87 in 10.0 mi Calm Calm - N/A   Mostly Cloudy
1:55 AM 70.7 °F - 66.2 °F 86% 29.86 in 10.0 mi North 3.5 mph - N/A   Scattered Clouds
2:14 AM 70.7 °F - 66.2 °F 86% 29.86 in 10.0 mi North 3.5 mph - N/A   Scattered Clouds
2:35 AM 70.7 °F - 66.2 °F 86% 29.86 in 10.0 mi North 3.5 mph - N/A   Mostly Cloudy
2:54 AM 70.7 °F - 66.6 °F 87% 29.86 in 10.0 mi Calm Calm - N/A   Mostly Cloudy
3:15 AM 71.8 °F - 66.7 °F 84% 29.85 in 10.0 mi NW 4.6 mph - N/A   Overcast
3:35 AM 72.5 °F - 66.6 °F 82% 29.85 in 10.0 mi WNW 3.5 mph - N/A   Overcast
3:54 AM 71.8 °F - 66.6 °F 84% 29.84 in 10.0 mi Calm Calm - N/A   Mostly Cloudy
4:15 AM 71.2 °F - 66.4 °F 85% 29.83 in 10.0 mi Calm Calm - N/A   Mostly Cloudy
4:34 AM 70.3 °F - 66.6 °F 88% 29.83 in 10.0 mi Calm Calm - N/A   Overcast
4:55 AM 71.1 °F - 66.6 °F 86% 29.83 in 10.0 mi Calm Calm - N/A   Mostly Cloudy
5:14 AM 72.5 °F - 66.2 °F 81% 29.83 in 10.0 mi SW 5.8 mph - N/A   Mostly Cloudy
5:35 AM 71.8 °F - 66.2 °F 83% 29.81 in 10.0 mi Calm Calm - N/A   Scattered Clouds
5:55 AM 72.7 °F - 66.0 °F 80% 29.82 in 10.0 mi Calm Calm - N/A   Scattered Clouds
6:14 AM 72.3 °F - 66.2 °F 81% 29.81 in 10.0 mi Calm Calm - N/A   Overcast
6:35 AM 71.2 °F - 66.2 °F 84% 29.81 in 10.0 mi Calm Calm - N/A   Overcast
6:54 AM 70.0 °F - 66.2 °F 88% 29.81 in 10.0 mi Calm Calm - N/A   Mostly Cloudy
7:15 AM 70.9 °F - 66.4 °F 86% 29.81 in 10.0 mi Calm Calm - N/A   Mostly Cloudy
7:34 AM 70.2 °F - 66.4 °F 88% 29.81 in 10.0 mi Calm Calm - N/A   Scattered Clouds
7:55 AM 71.1 °F - 66.4 °F 85% 29.80 in 10.0 mi Calm Calm - N/A   Clear
8:14 AM 70.5 °F - 66.6 °F 87% 29.81 in 10.0 mi Calm Calm - N/A   Mostly Cloudy
8:34 AM 71.2 °F - 66.9 °F 86% 29.81 in 10.0 mi Calm Calm - N/A Rain Light Rain
8:55 AM 71.1 °F - 67.1 °F 87% 29.81 in 4.0 mi South 3.5 mph - N/A Rain Heavy Rain
9:14 AM 70.2 °F - 67.5 °F 91% 29.81 in 4.0 mi Calm Calm - N/A Rain Light Rain
9:35 AM 70.0 °F - 67.6 °F 92% 29.80 in 4.0 mi South 4.6 mph - N/A Rain Light Rain
9:54 AM 70.2 °F - 68.0 °F 93% 29.80 in 5.0 mi Calm Calm - N/A Rain Rain
10:15 AM 70.2 °F - 68.2 °F 93% 29.79 in 5.0 mi SSE 3.5 mph - N/A Rain Light Rain
10:55 AM 71.1 °F - 68.5 °F 92% 29.79 in 7.0 mi SSE 5.8 mph - N/A   Overcast
11:14 AM 72.0 °F - 68.7 °F 89% 29.79 in 10.0 mi South 4.6 mph - N/A   Overcast
11:35 AM 72.9 °F - 69.6 °F 90% 29.79 in 7.0 mi SSW 5.8 mph - N/A   Overcast
11:55 AM 73.6 °F - 69.8 °F 88% 29.78 in 7.0 mi SSW 4.6 mph - N/A   Overcast
12:15 PM 75.4 °F - 70.2 °F 84% 29.77 in 7.0 mi SSW 9.2 mph - N/A   Mostly Cloudy
12:35 PM 75.2 °F - 69.6 °F 83% 29.77 in 7.0 mi SSW 6.9 mph - N/A   Mostly Cloudy
12:55 PM 75.4 °F - 69.6 °F 82% 29.77 in 10.0 mi SSW 3.5 mph - N/A   Overcast
1:14 PM 75.6 °F - 69.3 °F 81% 29.76 in 10.0 mi SW 5.8 mph - N/A   Overcast
1:35 PM 75.6 °F - 68.4 °F 78% 29.77 in 10.0 mi SW 9.2 mph - N/A   Overcast
1:54 PM 77.5 °F - 68.4 °F 73% 29.76 in 10.0 mi SW 11.5 mph - N/A   Mostly Cloudy
2:15 PM 79.2 °F - 68.9 °F 71% 29.76 in 10.0 mi SSW 10.4 mph - N/A   Mostly Cloudy
2:34 PM 80.4 °F 83.2 °F 68.4 °F 67% 29.75 in 10.0 mi SW 9.2 mph - N/A   Scattered Clouds
2:55 PM 79.9 °F - 67.5 °F 66% 29.74 in 10.0 mi SW 8.1 mph - N/A   Mostly Cloudy
3:15 PM 77.7 °F - 67.1 °F 70% 29.74 in 10.0 mi West 6.9 mph - N/A   Overcast
3:54 PM 73.9 °F - 68.2 °F 82% 29.75 in 7.0 mi West 10.4 mph 16.1 mph N/A Rain Rain
4:15 PM 73.8 °F - 70.2 °F 88% 29.74 in 7.0 mi West 4.6 mph - N/A   Mostly Cloudy
4:34 PM 72.9 °F - 68.7 °F 87% 29.74 in 7.0 mi WSW 9.2 mph - N/A Rain Rain
4:54 PM 71.8 °F - 68.2 °F 88% 29.73 in 7.0 mi West 6.9 mph - N/A   Overcast
5:15 PM 72.5 °F - 68.9 °F 88% 29.73 in 7.0 mi West 6.9 mph 16.1 mph N/A   Mostly Cloudy
5:34 PM 74.1 °F - 68.9 °F 84% 29.73 in 10.0 mi West 9.2 mph - N/A   Scattered Clouds
5:55 PM 73.8 °F - 68.4 °F 83% 29.73 in 10.0 mi West 4.6 mph - N/A   Mostly Cloudy
6:14 PM 73.0 °F - 67.8 °F 84% 29.72 in 10.0 mi West 4.6 mph - N/A   Overcast
6:35 PM 73.4 °F - 67.8 °F 83% 29.73 in 10.0 mi West 4.6 mph - N/A   Overcast
6:54 PM 72.1 °F - 67.1 °F 84% 29.73 in 10.0 mi West 8.1 mph - N/A   Mostly Cloudy
7:15 PM 71.2 °F - 66.7 °F 86% 29.73 in 10.0 mi West 11.5 mph 18.4 mph N/A   Overcast
7:35 PM 70.7 °F - 66.6 °F 87% 29.73 in 10.0 mi West 9.2 mph 21.9 mph N/A   Overcast
7:54 PM 69.8 °F - 66.6 °F 89% 29.73 in 10.0 mi West 12.7 mph 18.4 mph N/A   Overcast
8:15 PM 69.4 °F - 66.4 °F 90% 29.74 in 10.0 mi West 6.9 mph - N/A   Overcast
8:34 PM 69.8 °F - 66.4 °F 89% 29.74 in 10.0 mi West 6.9 mph - N/A   Overcast
8:55 PM 69.3 °F - 66.4 °F 91% 29.75 in 10.0 mi West 5.8 mph - N/A   Overcast
9:35 PM 68.9 °F - 66.6 °F 92% 29.76 in 10.0 mi WSW 6.9 mph - N/A   Overcast
9:54 PM 68.2 °F - 66.2 °F 93% 29.77 in 7.0 mi WSW 8.1 mph - N/A   Overcast
10:15 PM 68.0 °F - 66.2 °F 94% 29.77 in 7.0 mi SW 8.1 mph - N/A   Overcast
10:34 PM 68.0 °F - 66.2 °F 94% 29.78 in 4.0 mi WSW 8.1 mph - N/A Rain Light Rain
10:55 PM 66.4 °F - 65.1 °F 96% 29.78 in 1.0 mi SW 11.5 mph 17.3 mph N/A Rain Rain
11:14 PM 66.2 °F - 65.3 °F 97% 29.79 in 1.0 mi WSW 6.9 mph - N/A   Drizzle
11:35 PM 64.8 °F - 63.7 °F 96% 29.79 in 1.8 mi WSW 8.1 mph - N/A   Drizzle
11:54 PM 64.4 °F - 63.1 °F 96% 29.80 in 2.0 mi West 5.8 mph - N/A   Light Drizzle